LOCATION_NAME,SAMPLE COLLECTION TIME,DOSE EQUIVALENT RATE (nSv/h),GAMMA COUNT RATE R02 (CPM),GAMMA COUNT RATE R03 (CPM),GAMMA COUNT RATE R04 (CPM),GAMMA COUNT RATE R05 (CPM),GAMMA COUNT RATE R06 (CPM),GAMMA COUNT RATE R07 (CPM),GAMMA COUNT RATE R08 (CPM),GAMMA COUNT RATE R09 (CPM),STATUS
MD: BALTIMORE,01/01/2019 00:27:00,,1228.00,764.00,252.00,122.00,72.00,100.00,53.00,24.00,APPROVED
MD: BALTIMORE,01/01/2019 01:27:00,,1186.00,712.00,239.00,115.00,68.00,95.00,49.00,23.00,APPROVED
MD: BALTIMORE,01/01/2019 02:28:00,,1145.00,682.00,224.00,107.00,67.00,93.00,51.00,21.00,APPROVED
MD: BALTIMORE,01/01/2019 03:28:00,,1147.00,683.00,230.00,108.00,67.00,91.00,48.00,21.00,APPROVED
MD: BALTIMORE,01/01/2019 04:28:00,,1200.00,730.00,238.00,113.00,68.00,97.00,52.00,23.00,APPROVED
MD: BALTIMORE,01/01/2019 05:28:00,,1193.00,734.00,244.00,118.00,72.00,97.00,51.00,23.00,APPROVED
MD: BALTIMORE,01/01/2019 06:29:00,,1142.00,708.00,232.00,109.00,70.00,94.00,50.00,22.00,APPROVED
MD: BALTIMORE,01/01/2019 07:29:00,,1101.00,678.00,230.00,109.00,68.00,93.00,49.00,22.00,APPROVED
MD: BALTIMORE,01/01/2019 08:29:00,,1065.00,643.00,219.00,105.00,65.00,91.00,47.00,21.00,APPROVED
MD: BALTIMORE,01/01/2019 09:29:00,,1047.00,631.00,209.00,102.00,64.00,88.00,47.00,21.00,APPROVED
MD: BALTIMORE,01/01/2019 10:29:00,,1056.00,617.00,207.00,100.00,63.00,85.00,45.00,22.00,APPROVED
MD: BALTIMORE,01/01/2019 11:30:00,,1054.00,614.00,203.00,98.00,63.00,85.00,45.00,21.00,APPROVED
MD: BALTIMORE,01/01/2019 12:30:00,,1050.00,615.00,203.00,99.00,63.00,84.00,44.00,21.00,APPROVED
MD: BALTIMORE,01/01/2019 13:30:00,,1034.00,599.00,197.00,97.00,61.00,82.00,45.00,21.00,APPROVED
MD: BALTIMORE,01/01/2019 14:30:00,,1006.00,572.00,186.00,93.00,57.00,77.00,42.00,21.00,APPROVED
MD: BALTIMORE,01/01/2019 15:30:00,,996.00,562.00,186.00,89.00,55.00,75.00,42.00,21.00,APPROVED
MD: BALTIMORE,01/01/2019 16:31:00,,1009.00,572.00,186.00,90.00,59.00,74.00,42.00,21.00,APPROVED
MD: BALTIMORE,01/01/2019 17:31:00,,1014.00,583.00,188.00,90.00,57.00,77.00,44.00,21.00,APPROVED
MD: BALTIMORE,01/01/2019 18:31:00,,1043.00,587.00,197.00,95.00,58.00,79.00,43.00,21.00,APPROVED
MD: BALTIMORE,01/01/2019 19:31:00,,1053.00,608.00,199.00,95.00,62.00,81.00,43.00,21.00,APPROVED
MD: BALTIMORE,01/01/2019 20:31:00,,1066.00,620.00,205.00,97.00,63.00,83.00,43.00,22.00,APPROVED
MD: BALTIMORE,01/01/2019 21:32:00,,1057.00,616.00,204.00,96.00,61.00,82.00,46.00,21.00,APPROVED
MD: BALTIMORE,01/01/2019 22:32:00,,1040.00,604.00,199.00,95.00,62.00,83.00,43.00,21.00,APPROVED
MD: BALTIMORE,01/01/2019 23:32:00,,1010.00,587.00,193.00,93.00,59.00,79.00,45.00,21.00,APPROVED
MD: BALTIMORE,01/02/2019 00:32:00,,1006.00,571.00,190.00,91.00,58.00,79.00,43.00,20.00,APPROVED
MD: BALTIMORE,01/02/2019 01:32:00,,1001.00,571.00,186.00,91.00,58.00,76.00,41.00,21.00,APPROVED
MD: BALTIMORE,01/02/2019 02:33:00,,989.00,564.00,186.00,90.00,59.00,74.00,43.00,21.00,APPROVED
MD: BALTIMORE,01/02/2019 03:33:00,,979.00,563.00,184.00,90.00,58.00,74.00,43.00,21.00,APPROVED
MD: BALTIMORE,01/02/2019 04:33:00,,991.00,568.00,185.00,91.00,58.00,76.00,45.00,21.00,APPROVED
MD: BALTIMORE,01/02/2019 05:33:00,,1007.00,605.00,200.00,97.00,62.00,82.00,48.00,22.00,APPROVED
MD: BALTIMORE,01/02/2019 06:33:00,,1024.00,629.00,209.00,104.00,63.00,85.00,49.00,22.00,APPROVED
MD: BALTIMORE,01/02/2019 07:34:00,,1016.00,607.00,200.00,101.00,62.00,82.00,47.00,22.00,APPROVED
MD: BALTIMORE,01/02/2019 08:34:00,,999.00,596.00,199.00,96.00,62.00,82.00,47.00,22.00,APPROVED
MD: BALTIMORE,01/02/2019 09:34:00,,987.00,574.00,191.00,93.00,60.00,76.00,45.00,21.00,APPROVED
MD: BALTIMORE,01/02/2019 10:34:00,,984.00,565.00,188.00,91.00,58.00,75.00,44.00,21.00,APPROVED
MD: BALTIMORE,01/02/2019 11:34:00,,985.00,577.00,188.00,93.00,58.00,77.00,45.00,20.00,APPROVED
MD: BALTIMORE,01/02/2019 12:35:00,,986.00,579.00,189.00,93.00,59.00,77.00,43.00,21.00,APPROVED
MD: BALTIMORE,01/02/2019 13:35:00,,982.00,568.00,189.00,92.00,57.00,75.00,44.00,21.00,APPROVED
MD: BALTIMORE,01/02/2019 14:35:00,,977.00,563.00,187.00,89.00,58.00,75.00,43.00,20.00,APPROVED
MD: BALTIMORE,01/02/2019 15:35:00,,971.00,556.00,182.00,88.00,55.00,76.00,44.00,21.00,APPROVED
MD: BALTIMORE,01/02/2019 16:36:00,,972.00,548.00,181.00,88.00,57.00,72.00,43.00,21.00,APPROVED
MD: BALTIMORE,01/02/2019 17:36:00,,970.00,550.00,183.00,87.00,56.00,72.00,40.00,20.00,APPROVED
MD: BALTIMORE,01/02/2019 18:36:00,,963.00,547.00,181.00,88.00,54.00,74.00,41.00,20.00,APPROVED
MD: BALTIMORE,01/02/2019 19:36:00,,969.00,544.00,180.00,88.00,57.00,74.00,41.00,21.00,APPROVED
MD: BALTIMORE,01/02/2019 20:36:00,,964.00,544.00,184.00,86.00,56.00,74.00,42.00,20.00,APPROVED
MD: BALTIMORE,01/02/2019 21:37:00,,966.00,548.00,181.00,88.00,56.00,72.00,42.00,20.00,APPROVED
MD: BALTIMORE,01/02/2019 22:37:00,,970.00,547.00,181.00,89.00,56.00,74.00,42.00,21.00,APPROVED
MD: BALTIMORE,01/02/2019 23:37:00,,968.00,549.00,179.00,88.00,56.00,71.00,43.00,21.00,APPROVED
MD: BALTIMORE,01/03/2019 00:37:00,,977.00,547.00,179.00,86.00,56.00,71.00,41.00,21.00,APPROVED
MD: BALTIMORE,01/03/2019 01:37:00,,971.00,544.00,178.00,88.00,57.00,70.00,41.00,21.00,APPROVED
MD: BALTIMORE,01/03/2019 02:38:00,,969.00,537.00,176.00,85.00,56.00,72.00,40.00,21.00,APPROVED
MD: BALTIMORE,01/03/2019 03:38:00,,967.00,548.00,183.00,84.00,55.00,73.00,40.00,20.00,APPROVED
MD: BALTIMORE,01/03/2019 04:38:00,,984.00,547.00,179.00,86.00,56.00,73.00,42.00,20.00,APPROVED
MD: BALTIMORE,01/03/2019 05:38:00,,976.00,553.00,183.00,88.00,55.00,75.00,42.00,19.00,APPROVED
MD: BALTIMORE,01/03/2019 06:38:00,,996.00,567.00,185.00,92.00,59.00,76.00,44.00,21.00,APPROVED
MD: BALTIMORE,01/03/2019 07:39:00,,993.00,570.00,189.00,91.00,59.00,75.00,44.00,21.00,APPROVED
MD: BALTIMORE,01/03/2019 08:39:00,,997.00,568.00,189.00,93.00,59.00,75.00,45.00,22.00,APPROVED
MD: BALTIMORE,01/03/2019 09:39:00,,1005.00,577.00,185.00,92.00,60.00,75.00,44.00,20.00,APPROVED
MD: BALTIMORE,01/03/2019 10:39:00,,1011.00,582.00,189.00,95.00,58.00,76.00,45.00,20.00,APPROVED
MD: BALTIMORE,01/03/2019 11:39:00,,1008.00,581.00,190.00,92.00,59.00,76.00,43.00,22.00,APPROVED
MD: BALTIMORE,01/03/2019 12:40:00,,1018.00,583.00,194.00,93.00,59.00,79.00,43.00,22.00,APPROVED
MD: BALTIMORE,01/03/2019 13:40:00,,1019.00,588.00,193.00,95.00,61.00,76.00,45.00,21.00,APPROVED
MD: BALTIMORE,01/03/2019 14:40:00,,1030.00,604.00,200.00,95.00,60.00,82.00,47.00,21.00,APPROVED
MD: BALTIMORE,01/03/2019 15:40:00,,1035.00,616.00,206.00,98.00,64.00,85.00,47.00,22.00,APPROVED
MD: BALTIMORE,01/03/2019 16:40:00,,1040.00,625.00,208.00,101.00,64.00,87.00,45.00,23.00,APPROVED
MD: BALTIMORE,01/03/2019 22:42:00,,1015.00,588.00,197.00,98.00,59.00,79.00,45.00,22.00,APPROVED
MD: BALTIMORE,01/03/2019 23:42:00,,1018.00,594.00,196.00,97.00,61.00,81.00,46.00,21.00,APPROVED
MD: BALTIMORE,01/04/2019 00:42:00,,1020.00,594.00,198.00,95.00,60.00,78.00,44.00,22.00,APPROVED
MD: BALTIMORE,01/04/2019 01:42:00,,1020.00,598.00,195.00,98.00,60.00,80.00,45.00,22.00,APPROVED
MD: BALTIMORE,01/04/2019 02:43:00,,1023.00,611.00,199.00,97.00,62.00,80.00,48.00,22.00,APPROVED
MD: BALTIMORE,01/04/2019 03:43:00,,1047.00,640.00,209.00,103.00,66.00,84.00,50.00,22.00,APPROVED
MD: BALTIMORE,01/04/2019 04:43:00,,1068.00,669.00,223.00,111.00,68.00,88.00,53.00,23.00,APPROVED
MD: BALTIMORE,01/04/2019 05:43:00,,1073.00,704.00,231.00,119.00,69.00,96.00,53.00,22.00,APPROVED
MD: BALTIMORE,01/04/2019 06:43:00,,1076.00,698.00,233.00,118.00,70.00,98.00,55.00,24.00,APPROVED
MD: BALTIMORE,01/04/2019 07:44:00,,1057.00,679.00,227.00,116.00,69.00,93.00,54.00,23.00,APPROVED
MD: BALTIMORE,01/04/2019 08:44:00,,1094.00,722.00,239.00,123.00,69.00,100.00,55.00,23.00,APPROVED
MD: BALTIMORE,01/04/2019 09:44:00,,1111.00,739.00,245.00,128.00,75.00,101.00,58.00,24.00,APPROVED
MD: BALTIMORE,01/04/2019 10:44:00,,1096.00,725.00,243.00,124.00,73.00,98.00,57.00,25.00,APPROVED
MD: BALTIMORE,01/04/2019 11:44:00,,1126.00,743.00,249.00,127.00,74.00,106.00,59.00,24.00,APPROVED
MD: BALTIMORE,01/04/2019 12:45:00,,1137.00,752.00,249.00,127.00,75.00,104.00,59.00,23.00,APPROVED
MD: BALTIMORE,01/04/2019 13:45:00,,1137.00,747.00,245.00,125.00,74.00,102.00,57.00,25.00,APPROVED
MD: BALTIMORE,01/04/2019 14:45:00,,1130.00,739.00,247.00,126.00,73.00,101.00,56.00,24.00,APPROVED
MD: BALTIMORE,01/04/2019 15:45:00,,1097.00,699.00,235.00,119.00,71.00,96.00,54.00,24.00,APPROVED
MD: BALTIMORE,01/04/2019 16:30:00,,1062.00,657.00,222.00,107.00,66.00,91.00,51.00,22.00,APPROVED
MD: BALTIMORE,01/04/2019 17:38:00,,985.00,545.00,172.00,85.00,55.00,72.00,41.00,21.00,APPROVED
MD: BALTIMORE,01/04/2019 18:38:00,,1012.00,577.00,191.00,91.00,58.00,78.00,43.00,22.00,APPROVED
MD: BALTIMORE,01/04/2019 19:38:00,,1041.00,612.00,199.00,96.00,60.00,82.00,43.00,21.00,APPROVED
MD: BALTIMORE,01/04/2019 20:38:00,,1050.00,628.00,209.00,102.00,62.00,85.00,46.00,21.00,APPROVED
MD: BALTIMORE,01/04/2019 21:39:00,,1040.00,617.00,205.00,97.00,62.00,84.00,46.00,21.00,APPROVED
MD: BALTIMORE,01/04/2019 22:39:00,,1023.00,591.00,196.00,96.00,61.00,83.00,45.00,22.00,APPROVED
MD: BALTIMORE,01/04/2019 23:39:00,,998.00,576.00,193.00,93.00,58.00,76.00,44.00,20.00,APPROVED
MD: BALTIMORE,01/05/2019 00:39:00,,998.00,568.00,187.00,89.00,58.00,76.00,43.00,21.00,APPROVED
MD: BALTIMORE,01/05/2019 01:40:00,,997.00,555.00,182.00,89.00,58.00,74.00,42.00,21.00,APPROVED
MD: BALTIMORE,01/05/2019 02:40:00,,1026.00,583.00,190.00,92.00,59.00,79.00,43.00,20.00,APPROVED
MD: BALTIMORE,01/05/2019 03:40:00,,1046.00,610.00,198.00,96.00,61.00,80.00,45.00,22.00,APPROVED
MD: BALTIMORE,01/05/2019 04:40:00,,1050.00,609.00,204.00,97.00,63.00,81.00,44.00,21.00,APPROVED
MD: BALTIMORE,01/05/2019 05:40:00,,1071.00,633.00,207.00,102.00,63.00,83.00,48.00,23.00,APPROVED
MD: BALTIMORE,01/05/2019 06:41:00,,1054.00,621.00,207.00,102.00,63.00,84.00,46.00,21.00,APPROVED
MD: BALTIMORE,01/05/2019 07:41:00,,1026.00,602.00,201.00,98.00,62.00,81.00,45.00,22.00,APPROVED
MD: BALTIMORE,01/05/2019 08:41:00,,1013.00,586.00,196.00,94.00,59.00,80.00,43.00,22.00,APPROVED
MD: BALTIMORE,01/05/2019 09:41:00,,1068.00,632.00,213.00,102.00,63.00,87.00,47.00,22.00,APPROVED
MD: BALTIMORE,01/05/2019 10:41:00,,1065.00,633.00,208.00,101.00,64.00,84.00,48.00,21.00,APPROVED
MD: BALTIMORE,01/05/2019 11:42:00,,1035.00,602.00,202.00,97.00,63.00,81.00,47.00,21.00,APPROVED
MD: BALTIMORE,01/05/2019 12:42:00,,1090.00,642.00,212.00,103.00,64.00,85.00,48.00,20.00,APPROVED
MD: BALTIMORE,01/05/2019 13:42:00,,1067.00,630.00,209.00,100.00,62.00,85.00,46.00,22.00,APPROVED
MD: BALTIMORE,01/05/2019 14:42:00,,1063.00,643.00,213.00,101.00,65.00,86.00,48.00,22.00,APPROVED
MD: BALTIMORE,01/05/2019 15:42:00,,1093.00,667.00,225.00,110.00,68.00,91.00,49.00,22.00,APPROVED
MD: BALTIMORE,01/05/2019 16:43:00,,1090.00,667.00,224.00,110.00,66.00,91.00,50.00,22.00,APPROVED
MD: BALTIMORE,01/05/2019 17:43:00,,1075.00,640.00,213.00,106.00,66.00,87.00,50.00,22.00,APPROVED
MD: BALTIMORE,01/05/2019 18:43:00,,1040.00,611.00,198.00,99.00,62.00,80.00,46.00,21.00,APPROVED
MD: BALTIMORE,01/05/2019 19:43:00,,1062.00,614.00,197.00,96.00,60.00,81.00,44.00,21.00,APPROVED
MD: BALTIMORE,01/05/2019 20:43:00,,1096.00,645.00,210.00,100.00,63.00,82.00,46.00,21.00,APPROVED
MD: BALTIMORE,01/05/2019 21:44:00,,1049.00,613.00,202.00,94.00,61.00,82.00,44.00,21.00,APPROVED
MD: BALTIMORE,01/05/2019 22:44:00,,1024.00,585.00,191.00,93.00,57.00,77.00,45.00,21.00,APPROVED
MD: BALTIMORE,01/05/2019 23:44:00,,1011.00,574.00,189.00,89.00,59.00,75.00,41.00,22.00,APPROVED
MD: BALTIMORE,01/06/2019 00:44:00,,993.00,562.00,182.00,87.00,58.00,74.00,43.00,20.00,APPROVED
MD: BALTIMORE,01/06/2019 01:44:00,,989.00,551.00,183.00,88.00,58.00,72.00,42.00,21.00,APPROVED
MD: BALTIMORE,01/06/2019 02:45:00,,983.00,550.00,181.00,87.00,56.00,73.00,42.00,21.00,APPROVED
MD: BALTIMORE,01/06/2019 03:45:00,,988.00,554.00,181.00,87.00,58.00,71.00,42.00,19.00,APPROVED
MD: BALTIMORE,01/06/2019 04:45:00,,999.00,559.00,183.00,87.00,58.00,73.00,43.00,21.00,APPROVED
MD: BALTIMORE,01/06/2019 05:45:00,,993.00,568.00,184.00,90.00,56.00,72.00,44.00,19.00,APPROVED
MD: BALTIMORE,01/06/2019 06:45:00,,993.00,567.00,186.00,90.00,58.00,76.00,44.00,20.00,APPROVED
MD: BALTIMORE,01/06/2019 07:46:00,,987.00,563.00,183.00,91.00,59.00,75.00,42.00,20.00,APPROVED
MD: BALTIMORE,01/06/2019 08:46:00,,994.00,562.00,183.00,88.00,57.00,76.00,43.00,20.00,APPROVED
MD: BALTIMORE,01/06/2019 09:46:00,,994.00,560.00,183.00,90.00,58.00,73.00,44.00,21.00,APPROVED
MD: BALTIMORE,01/06/2019 10:46:00,,987.00,566.00,187.00,91.00,58.00,73.00,45.00,20.00,APPROVED
MD: BALTIMORE,01/06/2019 11:47:00,,991.00,572.00,190.00,90.00,59.00,75.00,44.00,20.00,APPROVED
MD: BALTIMORE,01/06/2019 13:47:00,,1033.00,641.00,212.00,104.00,64.00,86.00,50.00,23.00,APPROVED
MD: BALTIMORE,01/06/2019 15:47:00,,1043.00,607.00,203.00,97.00,61.00,81.00,46.00,22.00,APPROVED
MD: BALTIMORE,01/06/2019 16:48:00,,1049.00,609.00,200.00,95.00,59.00,81.00,44.00,23.00,APPROVED
MD: BALTIMORE,01/06/2019 17:48:00,,1024.00,588.00,196.00,92.00,58.00,78.00,42.00,20.00,APPROVED
MD: BALTIMORE,01/06/2019 18:48:00,,1016.00,577.00,192.00,91.00,59.00,78.00,41.00,20.00,APPROVED
MD: BALTIMORE,01/06/2019 19:48:00,,1006.00,569.00,187.00,89.00,56.00,76.00,41.00,20.00,APPROVED
MD: BALTIMORE,01/06/2019 20:48:00,,998.00,554.00,183.00,87.00,58.00,76.00,40.00,21.00,APPROVED
MD: BALTIMORE,01/06/2019 21:49:00,,979.00,542.00,180.00,82.00,56.00,74.00,39.00,21.00,APPROVED
MD: BALTIMORE,01/06/2019 22:49:00,,951.00,530.00,175.00,87.00,53.00,70.00,39.00,20.00,APPROVED
MD: BALTIMORE,01/06/2019 23:49:00,,947.00,522.00,169.00,81.00,54.00,68.00,39.00,20.00,APPROVED
MD: BALTIMORE,01/07/2019 00:49:00,,938.00,515.00,167.00,80.00,55.00,69.00,41.00,19.00,APPROVED
MD: BALTIMORE,01/07/2019 01:49:00,,937.00,516.00,170.00,83.00,53.00,66.00,41.00,21.00,APPROVED
MD: BALTIMORE,01/07/2019 02:50:00,,930.00,521.00,170.00,80.00,54.00,69.00,41.00,22.00,APPROVED
MD: BALTIMORE,01/07/2019 03:50:00,,926.00,516.00,166.00,81.00,54.00,68.00,40.00,20.00,APPROVED
MD: BALTIMORE,01/07/2019 04:50:00,,929.00,513.00,172.00,83.00,56.00,67.00,41.00,21.00,APPROVED
MD: BALTIMORE,01/07/2019 05:50:00,,928.00,517.00,171.00,84.00,55.00,69.00,42.00,19.00,APPROVED
MD: BALTIMORE,01/07/2019 06:50:00,,931.00,509.00,173.00,82.00,53.00,65.00,43.00,20.00,APPROVED
MD: BALTIMORE,01/07/2019 07:51:00,,935.00,527.00,173.00,82.00,54.00,66.00,43.00,19.00,APPROVED
MD: BALTIMORE,01/07/2019 08:51:00,,939.00,535.00,174.00,84.00,54.00,70.00,43.00,20.00,APPROVED
MD: BALTIMORE,01/07/2019 09:51:00,,940.00,535.00,175.00,87.00,55.00,69.00,42.00,19.00,APPROVED
MD: BALTIMORE,01/07/2019 10:51:00,,944.00,532.00,175.00,86.00,57.00,70.00,44.00,20.00,APPROVED
MD: BALTIMORE,01/07/2019 11:51:00,,942.00,538.00,175.00,85.00,56.00,70.00,44.00,20.00,APPROVED
MD: BALTIMORE,01/07/2019 12:52:00,,935.00,533.00,173.00,86.00,55.00,70.00,43.00,20.00,APPROVED
MD: BALTIMORE,01/07/2019 13:52:00,,915.00,526.00,172.00,83.00,57.00,69.00,43.00,21.00,APPROVED
MD: BALTIMORE,01/07/2019 15:16:00,,903.00,491.00,160.00,79.00,52.00,64.00,40.00,19.00,APPROVED
MD: BALTIMORE,01/07/2019 16:16:00,,918.00,506.00,166.00,81.00,53.00,65.00,40.00,20.00,APPROVED
MD: BALTIMORE,01/07/2019 17:16:00,,908.00,498.00,164.00,79.00,52.00,67.00,41.00,20.00,APPROVED
MD: BALTIMORE,01/07/2019 18:17:00,,909.00,498.00,163.00,78.00,52.00,63.00,40.00,19.00,APPROVED
MD: BALTIMORE,01/07/2019 19:17:00,,900.00,495.00,162.00,77.00,53.00,65.00,39.00,19.00,APPROVED
MD: BALTIMORE,01/07/2019 20:17:00,,897.00,493.00,159.00,78.00,51.00,63.00,40.00,19.00,APPROVED
MD: BALTIMORE,01/07/2019 21:17:00,,907.00,496.00,161.00,79.00,52.00,64.00,41.00,19.00,APPROVED
MD: BALTIMORE,01/07/2019 22:17:00,,913.00,499.00,163.00,79.00,54.00,66.00,41.00,19.00,APPROVED
MD: BALTIMORE,01/07/2019 23:18:00,,911.00,501.00,162.00,79.00,54.00,64.00,40.00,20.00,APPROVED
MD: BALTIMORE,01/08/2019 00:18:00,,905.00,504.00,167.00,79.00,53.00,67.00,39.00,19.00,APPROVED
MD: BALTIMORE,01/08/2019 01:18:00,,905.00,498.00,163.00,78.00,52.00,66.00,41.00,19.00,APPROVED
MD: BALTIMORE,01/08/2019 02:18:00,,909.00,498.00,163.00,78.00,52.00,63.00,41.00,20.00,APPROVED
MD: BALTIMORE,01/08/2019 03:18:00,,903.00,494.00,159.00,77.00,54.00,63.00,40.00,20.00,APPROVED
MD: BALTIMORE,01/08/2019 04:19:00,,909.00,491.00,159.00,80.00,52.00,63.00,38.00,18.00,APPROVED
MD: BALTIMORE,01/08/2019 05:19:00,,924.00,503.00,166.00,81.00,51.00,65.00,40.00,20.00,APPROVED
MD: BALTIMORE,01/08/2019 06:19:00,,1004.00,562.00,184.00,90.00,57.00,74.00,42.00,20.00,APPROVED
MD: BALTIMORE,01/08/2019 07:19:00,,1164.00,688.00,223.00,112.00,66.00,84.00,50.00,21.00,APPROVED
MD: BALTIMORE,01/08/2019 08:20:00,,1065.00,619.00,204.00,99.00,62.00,81.00,47.00,22.00,APPROVED
MD: BALTIMORE,01/08/2019 09:20:00,,973.00,536.00,178.00,87.00,55.00,71.00,43.00,20.00,APPROVED
MD: BALTIMORE,01/08/2019 10:20:00,,952.00,530.00,174.00,84.00,54.00,66.00,40.00,20.00,APPROVED
MD: BALTIMORE,01/08/2019 11:20:00,,948.00,524.00,170.00,82.00,54.00,69.00,41.00,20.00,APPROVED
MD: BALTIMORE,01/08/2019 12:20:00,,952.00,524.00,172.00,84.00,55.00,66.00,41.00,19.00,APPROVED
MD: BALTIMORE,01/08/2019 13:21:00,,939.00,519.00,170.00,84.00,53.00,68.00,41.00,20.00,APPROVED
MD: BALTIMORE,01/08/2019 14:21:00,,940.00,528.00,169.00,85.00,54.00,69.00,41.00,20.00,APPROVED
MD: BALTIMORE,01/08/2019 15:21:00,,947.00,523.00,172.00,84.00,53.00,70.00,40.00,20.00,APPROVED
MD: BALTIMORE,01/08/2019 16:21:00,,947.00,523.00,176.00,82.00,56.00,70.00,39.00,21.00,APPROVED
MD: BALTIMORE,01/08/2019 17:21:00,,957.00,535.00,174.00,82.00,55.00,70.00,40.00,21.00,APPROVED
MD: BALTIMORE,01/08/2019 18:22:00,,969.00,533.00,178.00,84.00,54.00,72.00,39.00,20.00,APPROVED
MD: BALTIMORE,01/08/2019 19:22:00,,978.00,537.00,178.00,86.00,55.00,70.00,38.00,21.00,APPROVED
MD: BALTIMORE,01/08/2019 20:22:00,,987.00,544.00,179.00,85.00,56.00,73.00,39.00,21.00,APPROVED
MD: BALTIMORE,01/08/2019 21:22:00,,992.00,546.00,181.00,86.00,58.00,74.00,40.00,20.00,APPROVED
MD: BALTIMORE,01/08/2019 22:22:00,,1002.00,555.00,180.00,87.00,57.00,75.00,41.00,21.00,APPROVED
MD: BALTIMORE,01/08/2019 23:23:00,,991.00,560.00,179.00,89.00,57.00,76.00,39.00,21.00,APPROVED
MD: BALTIMORE,01/09/2019 00:23:00,,1015.00,574.00,187.00,90.00,59.00,76.00,41.00,20.00,APPROVED
MD: BALTIMORE,01/09/2019 01:23:00,,995.00,561.00,184.00,88.00,58.00,75.00,43.00,21.00,APPROVED
MD: BALTIMORE,01/09/2019 02:23:00,,1034.00,596.00,193.00,92.00,57.00,77.00,43.00,21.00,APPROVED
MD: BALTIMORE,01/09/2019 03:23:00,,1710.00,1122.00,339.00,162.00,93.00,132.00,66.00,27.00,APPROVED
MD: BALTIMORE,01/09/2019 04:24:00,,1410.00,872.00,288.00,139.00,81.00,113.00,61.00,24.00,APPROVED
MD: BALTIMORE,01/09/2019 06:24:00,,1054.00,611.00,203.00,97.00,62.00,84.00,45.00,22.00,APPROVED
MD: BALTIMORE,01/09/2019 07:24:00,,1000.00,582.00,192.00,95.00,59.00,79.00,43.00,22.00,APPROVED
MD: BALTIMORE,01/09/2019 08:24:00,,992.00,562.00,190.00,89.00,59.00,76.00,44.00,19.00,APPROVED
MD: BALTIMORE,01/09/2019 09:25:00,,986.00,565.00,185.00,91.00,58.00,72.00,42.00,21.00,APPROVED
MD: BALTIMORE,01/09/2019 10:25:00,,988.00,562.00,188.00,90.00,58.00,74.00,43.00,21.00,APPROVED
MD: BALTIMORE,01/09/2019 11:25:00,,989.00,563.00,189.00,89.00,57.00,76.00,45.00,21.00,APPROVED
MD: BALTIMORE,01/09/2019 12:25:00,,976.00,560.00,185.00,89.00,57.00,74.00,44.00,21.00,APPROVED
MD: BALTIMORE,01/09/2019 13:26:00,,968.00,545.00,180.00,89.00,56.00,73.00,43.00,20.00,APPROVED
MD: BALTIMORE,01/09/2019 14:26:00,,962.00,548.00,179.00,87.00,58.00,72.00,41.00,20.00,APPROVED
MD: BALTIMORE,01/09/2019 15:26:00,,967.00,549.00,181.00,89.00,56.00,72.00,43.00,21.00,APPROVED
MD: BALTIMORE,01/09/2019 16:26:00,,973.00,560.00,183.00,87.00,56.00,75.00,42.00,20.00,APPROVED
MD: BALTIMORE,01/09/2019 17:26:00,,989.00,562.00,187.00,92.00,59.00,74.00,43.00,21.00,APPROVED
MD: BALTIMORE,01/09/2019 18:27:00,,1002.00,578.00,192.00,93.00,59.00,79.00,45.00,21.00,APPROVED
MD: BALTIMORE,01/09/2019 19:27:00,,1028.00,604.00,196.00,96.00,61.00,79.00,45.00,22.00,APPROVED
MD: BALTIMORE,01/09/2019 20:27:00,,1025.00,611.00,198.00,98.00,61.00,80.00,47.00,21.00,APPROVED
MD: BALTIMORE,01/09/2019 21:27:00,,1013.00,598.00,197.00,97.00,62.00,81.00,47.00,20.00,APPROVED
MD: BALTIMORE,01/09/2019 22:27:00,,1009.00,597.00,199.00,96.00,60.00,80.00,47.00,20.00,APPROVED
MD: BALTIMORE,01/09/2019 23:28:00,,1008.00,598.00,198.00,97.00,61.00,77.00,47.00,21.00,APPROVED
MD: BALTIMORE,01/10/2019 00:28:00,,1014.00,601.00,197.00,98.00,62.00,80.00,46.00,23.00,APPROVED
MD: BALTIMORE,01/10/2019 01:28:00,,1006.00,602.00,196.00,96.00,61.00,77.00,48.00,22.00,APPROVED
MD: BALTIMORE,01/10/2019 02:28:00,,1003.00,608.00,200.00,98.00,63.00,79.00,47.00,21.00,APPROVED
MD: BALTIMORE,01/10/2019 03:28:00,,1012.00,609.00,198.00,99.00,61.00,81.00,47.00,22.00,APPROVED
MD: BALTIMORE,01/10/2019 04:29:00,,997.00,597.00,200.00,97.00,60.00,81.00,49.00,22.00,APPROVED
MD: BALTIMORE,01/10/2019 05:29:00,,971.00,576.00,189.00,97.00,60.00,75.00,47.00,20.00,APPROVED
MD: BALTIMORE,01/10/2019 06:29:00,,954.00,564.00,187.00,94.00,60.00,76.00,46.00,20.00,APPROVED
MD: BALTIMORE,01/10/2019 07:29:00,,958.00,559.00,186.00,93.00,60.00,74.00,47.00,21.00,APPROVED
MD: BALTIMORE,01/10/2019 08:29:00,,959.00,563.00,185.00,91.00,58.00,74.00,46.00,20.00,APPROVED
MD: BALTIMORE,01/10/2019 09:30:00,,944.00,553.00,181.00,90.00,58.00,72.00,45.00,21.00,APPROVED
MD: BALTIMORE,01/10/2019 10:30:00,,944.00,544.00,182.00,89.00,56.00,71.00,45.00,20.00,APPROVED
MD: BALTIMORE,01/10/2019 11:30:00,,928.00,538.00,177.00,87.00,56.00,70.00,43.00,20.00,APPROVED
MD: BALTIMORE,01/10/2019 12:30:00,,917.00,522.00,173.00,85.00,55.00,67.00,43.00,21.00,APPROVED
MD: BALTIMORE,01/10/2019 13:30:00,,908.00,513.00,168.00,82.00,54.00,67.00,41.00,20.00,APPROVED
MD: BALTIMORE,01/10/2019 14:31:00,,898.00,512.00,168.00,81.00,54.00,66.00,43.00,20.00,APPROVED
MD: BALTIMORE,01/10/2019 15:31:00,,908.00,507.00,168.00,81.00,53.00,67.00,42.00,20.00,APPROVED
MD: BALTIMORE,01/10/2019 16:31:00,,904.00,512.00,167.00,82.00,54.00,67.00,42.00,20.00,APPROVED
MD: BALTIMORE,01/10/2019 17:31:00,,912.00,517.00,169.00,82.00,52.00,67.00,42.00,20.00,APPROVED
MD: BALTIMORE,01/10/2019 18:32:00,,929.00,515.00,168.00,83.00,53.00,65.00,41.00,20.00,APPROVED
MD: BALTIMORE,01/10/2019 19:32:00,,928.00,514.00,172.00,83.00,54.00,68.00,42.00,19.00,APPROVED
MD: BALTIMORE,01/10/2019 20:32:00,,916.00,516.00,169.00,85.00,53.00,68.00,42.00,20.00,APPROVED
MD: BALTIMORE,01/10/2019 21:32:00,,916.00,508.00,167.00,83.00,54.00,67.00,40.00,20.00,APPROVED
MD: BALTIMORE,01/10/2019 22:32:00,,922.00,511.00,169.00,83.00,55.00,67.00,42.00,20.00,APPROVED
MD: BALTIMORE,01/10/2019 23:33:00,,903.00,504.00,166.00,80.00,54.00,66.00,42.00,20.00,APPROVED
MD: BALTIMORE,01/11/2019 00:33:00,,900.00,505.00,166.00,81.00,53.00,66.00,43.00,19.00,APPROVED
MD: BALTIMORE,01/11/2019 01:33:00,,902.00,502.00,166.00,81.00,52.00,65.00,42.00,19.00,APPROVED
MD: BALTIMORE,01/11/2019 03:33:00,,898.00,504.00,167.00,80.00,53.00,65.00,44.00,19.00,APPROVED
MD: BALTIMORE,01/11/2019 04:34:00,,896.00,505.00,163.00,82.00,52.00,65.00,43.00,19.00,APPROVED
MD: BALTIMORE,01/11/2019 05:34:00,,892.00,493.00,164.00,80.00,53.00,64.00,44.00,20.00,APPROVED
MD: BALTIMORE,01/11/2019 06:34:00,,886.00,494.00,164.00,78.00,54.00,64.00,42.00,20.00,APPROVED
MD: BALTIMORE,01/11/2019 07:34:00,,883.00,491.00,162.00,78.00,52.00,65.00,42.00,20.00,APPROVED
MD: BALTIMORE,01/11/2019 08:34:00,,885.00,490.00,163.00,79.00,54.00,64.00,42.00,20.00,APPROVED
MD: BALTIMORE,01/11/2019 09:35:00,,878.00,490.00,161.00,80.00,51.00,63.00,42.00,20.00,APPROVED
MD: BALTIMORE,01/11/2019 10:35:00,,872.00,487.00,167.00,80.00,52.00,64.00,42.00,20.00,APPROVED
MD: BALTIMORE,01/11/2019 11:35:00,,883.00,494.00,166.00,81.00,52.00,64.00,43.00,20.00,APPROVED
MD: BALTIMORE,01/11/2019 12:35:00,,883.00,498.00,164.00,79.00,54.00,64.00,43.00,19.00,APPROVED
MD: BALTIMORE,01/11/2019 13:35:00,,888.00,504.00,164.00,81.00,53.00,65.00,42.00,19.00,APPROVED
MD: BALTIMORE,01/11/2019 14:56:00,,868.00,477.00,154.00,79.00,50.00,60.00,39.00,19.00,APPROVED
MD: BALTIMORE,01/11/2019 15:56:00,,887.00,494.00,160.00,78.00,53.00,62.00,41.00,19.00,APPROVED
MD: BALTIMORE,01/11/2019 16:57:00,,898.00,495.00,161.00,78.00,52.00,65.00,40.00,20.00,APPROVED